Regional Weather Roundup
Issued by NWS

Home | Current Version | Previous Version | Text Only | Print | Product List | Glossary Off
Versions: 1 2 3 4 5 6 7 8 9 10 11 12 13 14 15 16 17 18 19 20 21 22 23 24 25 26 27 28 29 30 31 32 33 34 35 36 37 38 39 40 41 42 43 44 45 46 47 48 49 50

000
ASUS43 KLSX 240607
RWRMO

WEATHER SUMMARY FOR MISSOURI
NATIONAL WEATHER SERVICE SPRINGFIELD MO
100 AM CDT MON JUL 24 2017

NOTE: "FAIR" INDICATES FEW OR NO CLOUDS BELOW 12,000 FEET WITH NO
       SIGNIFICANT WEATHER AND/OR OBSTRUCTIONS TO VISIBILITY.
       CURRENT SKY AND/OR WEATHER CONDITIONS ARE NOT AVAILABLE FOR
       CHILLICOTHE AND FARMINGTON.

MOZ001>031-035>038-043-044-053-054-240700-
...NORTHERN AND WESTERN MISSOURI...

CITY           SKY/WX    TMP DP  RH WIND       PRES   REMARKS
KANSAS CTY INT CLEAR     76  68  76 NE8       29.96S
6HR MIN TEMP:  75; 6HR MAX TEMP:  90;

KANSAS C DTWN  PTCLDY    80  67  64 NE8       29.94S
6HR MIN TEMP:  80; 6HR MAX TEMP:  91;

LEE`S SUMMIT   PTCLDY    78  71  79 NE8       29.96S
6HR MIN TEMP:  78; 6HR MAX TEMP:  90;

ST JOSEPH      CLEAR     71  67  87 NW5       29.97S
6HR MIN TEMP:  71; 6HR MAX TEMP:  87;

CHILLICOTHE      N/A     73  66  78 N3        29.97S
6HR MIN TEMP:  73; 6HR MAX TEMP:  90;

KIRKSVILLE     CLEAR     68  63  84 N6        29.96F
6HR MIN TEMP:  67; 6HR MAX TEMP:  88;


$$
MOZ066>068-077>081-088>096-101>105-240700-
...SOUTHWEST MISSOURI...

CITY           SKY/WX    TMP DP  RH WIND       PRES   REMARKS
SPRINGFIELD    PTCLDY    75  71  87 CALM      29.96R
6HR MIN TEMP:  74; 6HR MAX TEMP:  91;

JOPLIN         PTCLDY    76  72  87 S3        29.96R
6HR MIN TEMP:  75; 6HR MAX TEMP:  92;

BRANSON        CLOUDY    75  68  78 CALM      29.97F

$$
MOZ032>034-039>042-045>050-055>058-069>072-240700-
...CENTRAL MISSOURI...

CITY           SKY/WX    TMP DP  RH WIND       PRES   REMARKS
COLUMBIA       PTCLDY    74  72  93 NE3       29.92R
6HR MIN TEMP:  74; 6HR MAX TEMP:  87;

JEFFERSON CITY PTCLDY    75  72  90 E3        29.91R
6HR MIN TEMP:  73; 6HR MAX TEMP:  89;

ROLLA          PTCLDY    72  69  90 SW3       29.93R
6HR MIN TEMP:  71; 6HR MAX TEMP:  86;

SEDALIA        CLEAR     78  76  93 W5        29.93S
6HR MIN TEMP:  77; 6HR MAX TEMP:  87;

WHITEMAN AFB   PTCLDY    78  78 100 NW6       29.92R
OSAGE BEACH    CLOUDY    73  69  87 CALM      29.94R

$$
MOZ051-052-059>065-240700-
...EAST CENTRAL MISSOURI...

CITY           SKY/WX    TMP DP  RH WIND       PRES   REMARKS
ST LOUIS INTL  PTCLDY    80  71  74 N8        29.91R
6HR MIN TEMP:  80; 6HR MAX TEMP:  92;

SPIRIT OF STL  PTCLDY    74  73  97 W5        29.90R
6HR MIN TEMP:  74; 6HR MAX TEMP:  88;

ST CHARLES     CLEAR     76  71  85 N5        29.89S
6HR MIN TEMP:  75; 6HR MAX TEMP:  89;


$$
MOZ072>076-082>087-097>100-106>115-240700-
...SOUTH CENTRAL AND SOUTHEAST MISSOURI...

CITY           SKY/WX    TMP DP  RH WIND       PRES   REMARKS
CAPE GIRARDEAU CLEAR     76  70  82 W6        29.90R
6HR MIN TEMP:  74; 6HR MAX TEMP:  88;

FARMINGTON     CLOUDY    73  70  90 CALM      29.94R
6HR MIN TEMP:  72; 6HR MAX TEMP:  90;

POPLAR BLUFF   MOCLDY    76  73  91 S6        29.90S
6HR MIN TEMP:  76; 6HR MAX TEMP:  88;

WEST PLAINS    CLOUDY    72  67  84 CALM      29.95F
6HR MIN TEMP:  70; 6HR MAX TEMP:  85;


$$




USA.gov is the U.S. government's official web portal to all federal, state and local government web resources and services.